User: anonymous   Login
Location: Springfield
(37.2150°N, 93.2980°W)
Time: 22:32:20
(UTC-06:00)
Language:

Iridium 62 - Orbit

View from above orbital plane
View from above orbital plane
View from above satellite
View from above satellite

Ground track
Ground track

The orbit data is extracted from the following two-line orbital elements,

1 25285U 98021A   17052.53738134  .00000025  00000-0  17606-5 0  9993
2 25285  86.3930 272.2453 0002143  84.3499 275.7941 14.34218225988445
Epoch (UTC): 21 February 2017 12:53:49
Eccentricity: 0.0002143
inclination: 86.3930°
perigee height: 776 km
apogee height: 779 km
right ascension of ascending node: 272.2453°
argument of perigee: 84.3499°
revolutions per day: 14.34218225
mean anomaly at epoch: 275.7941°
orbit number at epoch: 98844

The dashed part of the orbit path shows where the satellite is in the earth's shadow,  

DLR